Location: Hodgeman County Ambulance
(38.0844°N, 99.8949°W)
Time: 00:32:08
(UTC+00:00)

CZ-4B R/B - Pass Details

Date: 27 October 2020
Orbit: 808 x 882 km, 99.1° (Epoch: 03 December)

Event Time Altitude Azimuth Distance (km) Brightness Sun altitude
Rises 12:29:58 0° 20° (NNE) 3,360 6.4 -6.7°
Reaches altitude 10° 12:32:26 10° 26° (NNE) 2,415 5.8 -6.3°
Maximum altitude 12:37:33 48° 100° (E) 1,058 4.4 -5.3°
Drops below altitude 10° 12:42:37 10° 174° (S) 2,383 5.8 -4.3°
Sets 12:45:01 0° 180° (S) 3,310 6.5 -3.8°
